| time (UTC) | temp F | wind direction | speed MPH | gust MPH | rain 1hr in | rain 24hr in | rain mn in | humidity % | barometer mb |
| 20260507035940 | 38 | 199 | 0.0 | 1.0 | 0.00 | 0.00 | 0.00 | 68 | 1013.0 |
| 20260507034503 | 38 | 199 | 0.0 | 0.0 | 0.00 | 0.00 | 0.00 | 69 | 1013.2 |
| 20260507033112 | 38 | 199 | 0.0 | 3.0 | 0.00 | 0.00 | 0.00 | 68 | 1013.2 |
| 20260507032700 | 39 | 199 | 1.0 | 0.0 | 0.00 | 0.00 | 0.00 | 67 | 1013.1 |
| 20260507031502 | 38 | 321 | 0.0 | 1.0 | 0.00 | 0.00 | 0.00 | 69 | 1013.3 |
| 20260507025353 | 39 | 321 | 0.0 | 0.0 | 0.00 | 0.00 | 0.00 | 62 | 1013.3 |
| 20260507024508 | 39 | 321 | 0.0 | 0.0 | 0.00 | 0.00 | 0.00 | 62 | 1013.3 |
| 20260507024358 | 40 | 321 | 0.0 | 0.0 | 0.00 | 0.00 | 0.00 | 62 | 1013.3 |
| 20260507023333 | 40 | 321 | 0.0 | 0.0 | 0.00 | 0.00 | 0.00 | 61 | 1013.2 |
| 20260507023102 | 39 | 321 | 0.0 | 0.0 | 0.00 | 0.00 | 0.00 | 62 | 1013.3 |
| 20260507022326 | 40 | 321 | 0.0 | 0.0 | 0.00 | 0.00 | 0.00 | 62 | 1013.1 |
| 20260507021503 | 39 | 321 | 0.0 | 0.0 | 0.00 | 0.00 | 0.00 | 62 | 1013.3 |
| 20260507021327 | 40 | 321 | 0.0 | 0.0 | 0.00 | 0.00 | 0.00 | 62 | 1013.3 |
| 20260507020347 | 41 | 321 | 0.0 | 0.0 | 0.00 | 0.00 | 0.00 | 61 | 1013.2 |
| 20260507020116 | 40 | 321 | 0.0 | 0.0 | 0.00 | 0.00 | 0.00 | 60 | 1013.3 |
| 20260507015401 | 41 | 321 | 0.0 | 0.0 | 0.00 | 0.00 | 0.00 | 60 | 1013.2 |
| 20260507014503 | 41 | 321 | 0.0 | 2.0 | 0.00 | 0.00 | 0.00 | 59 | 1013.2 |
| 20260507013241 | 42 | 321 | 2.0 | 3.0 | 0.00 | 0.00 | 0.00 | 58 | 1013.1 |
| 20260507013102 | 41 | 321 | 2.0 | 4.0 | 0.00 | 0.00 | 0.00 | 59 | 1013.2 |
| 20260507012245 | 42 | 319 | 2.0 | 4.0 | 0.00 | 0.00 | 0.00 | 58 | 1013.2 |
| 20260507011509 | 41 | 326 | 2.0 | 6.0 | 0.00 | 0.00 | 0.00 | 58 | 1013.2 |
| 20260507011234 | 42 | 325 | 3.0 | 5.0 | 0.00 | 0.00 | 0.00 | 58 | 1013.2 |
| 20260507010233 | 43 | 302 | 5.0 | 8.0 | 0.00 | 0.00 | 0.00 | 55 | 1013.2 |
| 20260507010104 | 42 | 308 | 4.0 | 9.0 | 0.00 | 0.00 | 0.00 | 55 | 1013.3 |
| 20260507005249 | 43 | 304 | 7.0 | 10.0 | 0.00 | 0.00 | 0.00 | 54 | 1013.3 |
| 20260507004503 | 43 | 317 | 8.0 | 13.0 | 0.00 | 0.00 | 0.00 | 53 | 1013.3 |
| 20260507004213 | 44 | 316 | 9.0 | 12.0 | 0.00 | 0.00 | 0.00 | 54 | 1013.2 |
| 20260507003143 | 44 | 322 | 7.0 | 12.0 | 0.00 | 0.00 | 0.00 | 53 | 1013.3 |
| 20260507003102 | 44 | 313 | 10.0 | 13.0 | 0.00 | 0.00 | 0.00 | 54 | 1013.3 |
| 20260507002111 | 45 | 326 | 9.0 | 16.0 | 0.00 | 0.00 | 0.00 | 52 | 1013.3 |
| 20260507001504 | 44 | 311 | 11.0 | 16.0 | 0.00 | 0.00 | 0.00 | 54 | 1013.5 |
| 20260507001104 | 45 | 307 | 10.0 | 16.0 | 0.00 | 0.00 | 0.00 | 52 | 1013.5 |
| 20260506234920 | 45 | 304 | 13.0 | 22.0 | 0.00 | 0.00 | 0.00 | 53 | 1013.5 |
| 20260506234502 | 44 | 304 | 15.0 | 23.0 | 0.00 | 0.00 | 0.00 | 53 | 1013.5 |
| 20260506233112 | 44 | 261 | 11.0 | 16.0 | 0.00 | 0.00 | 0.00 | 53 | 1013.7 |
| 20260506232737 | 44 | 310 | 11.0 | 17.0 | 0.00 | 0.00 | 0.00 | 55 | 1013.6 |
| 20260506231737 | 45 | 331 | 10.0 | 17.0 | 0.00 | 0.00 | 0.00 | 55 | 1013.6 |
| 20260506231502 | 44 | 305 | 9.0 | 17.0 | 0.00 | 0.00 | 0.00 | 53 | 1013.7 |
| 20260506230737 | 45 | 310 | 11.0 | 16.0 | 0.00 | 0.00 | 0.00 | 54 | 1013.6 |
| 20260506230103 | 44 | 326 | 13.0 | 18.0 | 0.00 | 0.00 | 0.00 | 53 | 1013.7 |
| 20260506225712 | 45 | 298 | 11.0 | 19.0 | 0.00 | 0.00 | 0.00 | 52 | 1013.6 |
| 20260506224502 | 44 | 305 | 16.0 | 21.0 | 0.00 | 0.00 | 0.00 | 53 | 1013.7 |
| 20260506223554 | 45 | 304 | 12.0 | 22.0 | 0.00 | 0.00 | 0.00 | 51 | 1013.6 |
| 20260506223106 | 45 | 330 | 11.0 | 18.0 | 0.00 | 0.00 | 0.00 | 53 | 1013.6 |
| 20260506221612 | 45 | 284 | 14.0 | 18.0 | 0.00 | 0.00 | 0.00 | 53 | 1013.6 |
| 20260506221456 | 45 | 309 | 10.0 | 17.0 | 0.00 | 0.00 | 0.00 | 53 | 1013.6 |
| 20260506220437 | 45 | 326 | 11.0 | 20.0 | 0.00 | 0.00 | 0.00 | 53 | 1013.7 |
| 20260506220002 | 45 | 310 | 11.0 | 21.0 | 0.00 | 0.00 | 0.00 | 52 | 1013.8 |
| 20260506215452 | 45 | 318 | 11.0 | 20.0 | 0.00 | 0.00 | 0.00 | 53 | 1013.7 |
| 20260506214603 | 44 | 300 | 9.0 | 18.0 | 0.00 | 0.00 | 0.00 | 55 | 1013.9 |
| 20260506214510 | 44 | 330 | 11.0 | 17.0 | 0.00 | 0.00 | 0.00 | 53 | 1013.8 |
| 20260506213508 | 45 | 300 | 11.0 | 23.0 | 0.00 | 0.00 | 0.00 | 55 | 1013.9 |
| 20260506213003 | 44 | 304 | 9.0 | 24.0 | 0.00 | 0.00 | 0.00 | 54 | 1014.0 |
| 20260506212525 | 45 | 309 | 11.0 | 23.0 | 0.00 | 0.00 | 0.00 | 54 | 1013.9 |
| 20260506211603 | 43 | 316 | 8.0 | 18.0 | 0.00 | 0.00 | 0.00 | 54 | 1014.1 |
| 20260506211512 | 43 | 294 | 10.0 | 18.0 | 0.00 | 0.00 | 0.00 | 57 | 1014.1 |
| 20260506210450 | 43 | 340 | 12.0 | 18.0 | 0.00 | 0.00 | 0.00 | 55 | 1014.1 |
| 20260506210003 | 43 | 311 | 12.0 | 19.0 | 0.00 | 0.00 | 0.00 | 56 | 1014.3 |
| 20260506205506 | 43 | 307 | 11.0 | 18.0 | 0.00 | 0.00 | 0.00 | 55 | 1014.3 |
| 20260506204604 | 43 | 303 | 13.0 | 19.0 | 0.00 | 0.00 | 0.00 | 57 | 1014.4 |
| 20260506204436 | 43 | 307 | 11.0 | 19.0 | 0.00 | 0.00 | 0.00 | 57 | 1014.3 |
| 20260506203428 | 43 | 277 | 14.0 | 19.0 | 0.00 | 0.00 | 0.00 | 58 | 1014.5 |
| 20260506203002 | 42 | 280 | 14.0 | 20.0 | 0.00 | 0.00 | 0.00 | 56 | 1014.5 |
| 20260506202422 | 43 | 293 | 10.0 | 16.0 | 0.00 | 0.00 | 0.00 | 57 | 1014.5 |
| 20260506201602 | 42 | 307 | 10.0 | 17.0 | 0.00 | 0.00 | 0.00 | 62 | 1014.5 |
| 20260506201444 | 42 | 331 | 9.0 | 16.0 | 0.00 | 0.00 | 0.00 | 60 | 1014.5 |
| 20260506200003 | 42 | 333 | 11.0 | 17.0 | 0.00 | 0.00 | 0.00 | 62 | 1014.6 |
| 20260506195315 | 42 | 306 | 10.0 | 16.0 | 0.00 | 0.00 | 0.00 | 61 | 1014.6 |
| 20260506194603 | 41 | 307 | 12.0 | 17.0 | 0.00 | 0.00 | 0.00 | 60 | 1014.6 |
| 20260506193055 | 41 | 314 | 11.0 | 16.0 | 0.00 | 0.00 | 0.00 | 59 | 1014.6 |
| 20260506193002 | 41 | 306 | 12.0 | 17.0 | 0.00 | 0.00 | 0.00 | 60 | 1014.6 |
| 20260506192103 | 42 | 287 | 9.0 | 16.0 | 0.00 | 0.00 | 0.00 | 59 | 1014.6 |
| 20260506191603 | 41 | 316 | 10.0 | 17.0 | 0.00 | 0.00 | 0.00 | 60 | 1014.7 |
| 20260506191027 | 42 | 311 | 12.0 | 19.0 | 0.00 | 0.00 | 0.00 | 60 | 1014.7 |
| 20260506190029 | 42 | 285 | 11.0 | 19.0 | 0.00 | 0.00 | 0.00 | 60 | 1014.7 |
| 20260506190007 | 41 | 291 | 14.0 | 20.0 | 0.00 | 0.00 | 0.00 | 60 | 1014.7 |
| 20260506185024 | 42 | 283 | 11.0 | 17.0 | 0.00 | 0.00 | 0.00 | 62 | 1014.6 |
| 20260506184613 | 41 | 295 | 13.0 | 18.0 | 0.00 | 0.00 | 0.00 | 59 | 1014.8 |
| 20260506184021 | 41 | 315 | 12.0 | 20.0 | 0.00 | 0.00 | 0.00 | 61 | 1014.7 |
| 20260506183009 | 40 | 297 | 13.0 | 21.0 | 0.00 | 0.00 | 0.00 | 62 | 1014.9 |
| 20260506182955 | 41 | 293 | 11.0 | 20.0 | 0.00 | 0.00 | 0.00 | 62 | 1014.9 |
| 20260506181954 | 41 | 311 | 10.0 | 15.0 | 0.00 | 0.00 | 0.00 | 60 | 1014.9 |
| 20260506181624 | 40 | 277 | 10.0 | 16.0 | 0.00 | 0.00 | 0.00 | 64 | 1015.0 |
| 20260506180003 | 39 | 314 | 12.0 | 19.0 | 0.00 | 0.00 | 0.00 | 61 | 1015.1 |
| 20260506175853 | 40 | 306 | 12.0 | 20.0 | 0.00 | 0.00 | 0.00 | 62 | 1015.0 |
| 20260506174602 | 39 | 304 | 7.0 | 18.0 | 0.00 | 0.00 | 0.00 | 65 | 1015.1 |
| 20260506173757 | 40 | 288 | 11.0 | 18.0 | 0.00 | 0.00 | 0.00 | 64 | 1015.0 |
| 20260506173003 | 39 | 324 | 14.0 | 19.0 | 0.00 | 0.00 | 0.00 | 63 | 1015.2 |
| 20260506172818 | 40 | 311 | 11.0 | 18.0 | 0.00 | 0.00 | 0.00 | 62 | 1015.2 |
| 20260506171816 | 39 | 316 | 10.0 | 19.0 | 0.00 | 0.00 | 0.00 | 61 | 1015.3 |
| 20260506171606 | 39 | 316 | 11.0 | 16.0 | 0.00 | 0.00 | 0.00 | 65 | 1015.3 |
| 20260506170739 | 39 | 281 | 13.0 | 19.0 | 0.00 | 0.00 | 0.00 | 64 | 1015.3 |
| 20260506170004 | 38 | 281 | 14.0 | 19.0 | 0.00 | 0.00 | 0.00 | 63 | 1015.4 |
| 20260506164614 | 38 | 293 | 10.0 | 16.0 | 0.00 | 0.00 | 0.00 | 62 | 1015.4 |
| 20260506164537 | 39 | 317 | 11.0 | 15.0 | 0.00 | 0.00 | 0.00 | 62 | 1015.4 |
| 20260506163509 | 39 | 324 | 10.0 | 14.0 | 0.00 | 0.00 | 0.00 | 63 | 1015.4 |
| 20260506163002 | 38 | 293 | 11.0 | 16.0 | 0.00 | 0.00 | 0.00 | 61 | 1015.5 |
| 20260506162522 | 39 | 290 | 11.0 | 20.0 | 0.00 | 0.00 | 0.00 | 65 | 1015.4 |
| 20260506161602 | 38 | 279 | 14.0 | 21.0 | 0.00 | 0.00 | 0.00 | 61 | 1015.4 |
| 20260506160426 | 39 | 304 | 11.0 | 15.0 | 0.00 | 0.00 | 0.00 | 62 | 1015.3 |
| 20260506160003 | 38 | 328 | 11.0 | 16.0 | 0.00 | 0.00 | 0.00 | 61 | 1015.3 |
| 20260506155424 | 38 | 307 | 9.0 | 16.0 | 0.00 | 0.00 | 0.00 | 61 | 1015.3 |
| 20260506154605 | 38 | 308 | 10.0 | 17.0 | 0.00 | 0.00 | 0.00 | 61 | 1015.3 |
| 20260506153304 | 38 | 294 | 9.0 | 16.0 | 0.00 | 0.00 | 0.00 | 64 | 1015.2 |
| 20260506153010 | 37 | 347 | 12.0 | 17.0 | 0.00 | 0.00 | 0.00 | 62 | 1015.2 |
| 20260506152243 | 38 | 313 | 10.0 | 14.0 | 0.00 | 0.00 | 0.00 | 63 | 1015.1 |
| 20260506151601 | 38 | 313 | 11.0 | 15.0 | 0.00 | 0.00 | 0.00 | 63 | 1015.1 |
| 20260506150105 | 38 | 276 | 9.0 | 13.0 | 0.00 | 0.00 | 0.00 | 65 | 1015.2 |
| 20260506150004 | 37 | 281 | 9.0 | 14.0 | 0.00 | 0.00 | 0.00 | 63 | 1015.2 |
| 20260506144613 | 37 | 300 | 7.0 | 9.0 | 0.00 | 0.00 | 0.00 | 66 | 1015.2 |
| 20260506143855 | 37 | 316 | 5.0 | 8.0 | 0.00 | 0.00 | 0.00 | 64 | 1015.2 |
| 20260506143003 | 37 | 314 | 6.0 | 12.0 | 0.00 | 0.00 | 0.00 | 64 | 1015.1 |
| 20260506141713 | 37 | 318 | 9.0 | 12.0 | 0.00 | 0.00 | 0.00 | 64 | 1015.0 |
| 20260506141603 | 36 | 328 | 10.0 | 13.0 | 0.00 | 0.00 | 0.00 | 64 | 1015.1 |
| 20260506140708 | 37 | 310 | 9.0 | 12.0 | 0.00 | 0.00 | 0.00 | 65 | 1015.1 |
| 20260506140005 | 36 | 302 | 10.0 | 13.0 | 0.00 | 0.00 | 0.00 | 66 | 1015.1 |
| 20260506135717 | 37 | 316 | 6.0 | 9.0 | 0.00 | 0.00 | 0.00 | 67 | 1015.0 |
| 20260506134733 | 36 | 294 | 5.0 | 8.0 | 0.00 | 0.00 | 0.00 | 71 | 1014.9 |
| 20260506134602 | 36 | 297 | 5.0 | 9.0 | 0.00 | 0.00 | 0.00 | 69 | 1015.0 |
| 20260506133002 | 35 | 285 | 6.0 | 10.0 | 0.00 | 0.00 | 0.00 | 71 | 1014.9 |
| 20260506132558 | 36 | 289 | 5.0 | 9.0 | 0.00 | 0.00 | 0.00 | 72 | 1014.8 |
| 20260506131618 | 35 | 282 | 5.0 | 8.0 | 0.00 | 0.00 | 0.00 | 73 | 1014.8 |
| 20260506131602 | 35 | 278 | 6.0 | 9.0 | 0.00 | 0.00 | 0.00 | 73 | 1014.8 |
| 20260506130545 | 35 | 276 | 5.0 | 8.0 | 0.00 | 0.00 | 0.00 | 76 | 1014.7 |
| 20260506130004 | 34 | 293 | 5.0 | 9.0 | 0.00 | 0.00 | 0.00 | 75 | 1014.6 |
| 20260506125601 | 35 | 288 | 5.0 | 8.0 | 0.00 | 0.00 | 0.00 | 75 | 1014.5 |
| 20260506124609 | 34 | 280 | 4.0 | 8.0 | 0.00 | 0.00 | 0.00 | 78 | 1014.4 |
| 20260506123613 | 34 | 286 | 5.0 | 7.0 | 0.00 | 0.00 | 0.00 | 77 | 1014.2 |
| 20260506123002 | 33 | 288 | 5.0 | 7.0 | 0.00 | 0.00 | 0.00 | 78 | 1014.2 |
| 20260506122554 | 34 | 283 | 3.0 | 4.0 | 0.00 | 0.00 | 0.00 | 80 | 1014.1 |
| 20260506121608 | 33 | 278 | 2.0 | 4.0 | 0.00 | 0.00 | 0.00 | 80 | 1014.0 |
| 20260506121604 | 32 | 278 | 3.0 | 5.0 | 0.00 | 0.00 | 0.00 | 80 | 1014.0 |
| 20260506120604 | 33 | 273 | 1.0 | 3.0 | 0.00 | 0.00 | 0.00 | 81 | 1013.8 |
| 20260506120005 | 31 | 290 | 1.0 | 3.0 | 0.00 | 0.00 | 0.00 | 82 | 1013.7 |
| 20260506115535 | 32 | 279 | 1.0 | 3.0 | 0.00 | 0.00 | 0.00 | 81 | 1013.6 |
| 20260506114612 | 31 | 278 | 3.0 | 4.0 | 0.00 | 0.00 | 0.00 | 81 | 1013.5 |
| 20260506114508 | 31 | 277 | 1.0 | 3.0 | 0.00 | 0.00 | 0.00 | 81 | 1013.5 |
| 20260506113454 | 31 | 236 | 0.0 | 2.0 | 0.00 | 0.00 | 0.00 | 80 | 1013.3 |
| 20260506113008 | 31 | 236 | 1.0 | 3.0 | 0.00 | 0.00 | 0.00 | 81 | 1013.2 |
| 20260506111602 | 31 | 283 | 0.0 | 3.0 | 0.00 | 0.00 | 0.00 | 80 | 1013.2 |
| 20260506111258 | 31 | 286 | 2.0 | 3.0 | 0.00 | 0.00 | 0.00 | 81 | 1013.1 |
| 20260506110003 | 31 | 316 | 2.0 | 4.0 | 0.00 | 0.00 | 0.00 | 80 | 1013.0 |
| 20260506105131 | 31 | 266 | 0.0 | 0.0 | 0.00 | 0.00 | 0.00 | 80 | 1013.1 |
| 20260506104607 | 30 | 266 | 0.0 | 2.0 | 0.00 | 0.00 | 0.00 | 81 | 1013.2 |
| 20260506104143 | 30 | 266 | 0.0 | 1.0 | 0.00 | 0.00 | 0.00 | 81 | 1013.3 |
| 20260506103136 | 30 | 266 | 0.0 | 1.0 | 0.00 | 0.00 | 0.00 | 81 | 1013.2 |
| 20260506103006 | 29 | 266 | 0.0 | 2.0 | 0.00 | 0.00 | 0.00 | 81 | 1013.3 |
| 20260506102120 | 30 | 267 | 1.0 | 1.0 | 0.00 | 0.00 | 0.00 | 81 | 1013.2 |
| 20260506101606 | 29 | 271 | 1.0 | 2.0 | 0.00 | 0.00 | 0.00 | 81 | 1013.2 |
| 20260506101130 | 29 | 271 | 0.0 | 1.0 | 0.00 | 0.00 | 0.00 | 81 | 1013.1 |
| 20260506100152 | 30 | 276 | 0.0 | 0.0 | 0.00 | 0.00 | 0.00 | 80 | 1012.8 |
| 20260506100004 | 29 | 276 | 0.0 | 2.0 | 0.00 | 0.00 | 0.00 | 80 | 1012.9 |
| 20260506095150 | 30 | 276 | 0.0 | 1.0 | 0.00 | 0.00 | 0.00 | 80 | 1012.8 |
| 20260506094601 | 29 | 276 | 0.0 | 2.0 | 0.00 | 0.00 | 0.00 | 80 | 1012.9 |
| 20260506094206 | 30 | 276 | 0.0 | 0.0 | 0.00 | 0.00 | 0.00 | 80 | 1012.8 |
| 20260506093200 | 30 | 276 | 0.0 | 1.0 | 0.00 | 0.00 | 0.00 | 79 | 1012.8 |
| 20260506093002 | 30 | 276 | 0.0 | 2.0 | 0.00 | 0.00 | 0.00 | 79 | 1012.8 |
| 20260506092130 | 30 | 276 | 0.0 | 0.0 | 0.00 | 0.00 | 0.00 | 79 | 1012.6 |
| 20260506091603 | 30 | 276 | 0.0 | 2.0 | 0.00 | 0.00 | 0.00 | 79 | 1012.7 |
| 20260506091114 | 30 | 276 | 0.0 | 2.0 | 0.00 | 0.00 | 0.00 | 79 | 1012.7 |
| 20260506090002 | 30 | 252 | 2.0 | 4.0 | 0.00 | 0.00 | 0.00 | 79 | 1012.9 |
| 20260506084923 | 31 | 252 | 1.0 | 3.0 | 0.00 | 0.00 | 0.00 | 79 | 1012.7 |
| 20260506084607 | 30 | 264 | 2.0 | 3.0 | 0.00 | 0.00 | 0.00 | 78 | 1012.7 |
| 20260506083855 | 31 | 300 | 0.0 | 0.0 | 0.00 | 0.00 | 0.00 | 77 | 1012.5 |
| 20260506083002 | 30 | 300 | 0.0 | 1.0 | 0.00 | 0.00 | 0.00 | 78 | 1012.4 |
| 20260506081740 | 31 | 300 | 0.0 | 0.0 | 0.00 | 0.00 | 0.00 | 77 | 1012.3 |
| 20260506081603 | 31 | 300 | 0.0 | 3.0 | 0.00 | 0.00 | 0.00 | 77 | 1012.4 |
| 20260506080800 | 32 | 300 | 1.0 | 3.0 | 0.00 | 0.00 | 0.00 | 77 | 1012.4 |
| 20260506073002 | 31 | 317 | 1.0 | 2.0 | 0.00 | 0.00 | 0.00 | 76 | 1012.3 |
| 20260506071607 | 32 | 318 | 0.0 | 2.0 | 0.00 | 0.00 | 0.00 | 77 | 1012.1 |
| 20260506062002 | 35 | 323 | 4.0 | 5.0 | 0.00 | 0.00 | 0.00 | 73 | 1012.0 |
| 20260506061604 | 34 | 319 | 5.0 | 6.0 | 0.00 | 0.00 | 0.00 | 72 | 1012.1 |
| 20260506044603 | 37 | 313 | 5.0 | 8.0 | 0.00 | 0.00 | 0.00 | 65 | 1011.4 |
| 20260506043223 | 38 | 313 | 5.0 | 9.0 | 0.00 | 0.00 | 0.00 | 65 | 1011.3 |
| 20260506043003 | 38 | 313 | 5.0 | 10.0 | 0.00 | 0.00 | 0.00 | 65 | 1011.3 |
| 20260506042148 | 39 | 323 | 7.0 | 14.0 | 0.00 | 0.00 | 0.00 | 63 | 1011.2 |
| 20260506041605 | 39 | 325 | 8.0 | 14.0 | 0.00 | 0.00 | 0.00 | 62 | 1011.2 |
| 20260506041140 | 40 | 320 | 9.0 | 14.0 | 0.00 | 0.00 | 0.00 | 62 | 1011.1 |